{"data":{"norad_id":53960,"epoch":"2026-05-24T11:51:13.233024Z","epoch_age_seconds":119064,"freshness":"FRESH","line1":"1 53960U 22123A   26144.49390316 -.00000105  00000+0  00000+0 0  9990","line2":"2 53960   0.0468  94.6663 0001904 348.6628 233.4603  1.00269485 13299","mean_motion":1.00269485,"eccentricity":0.0001904,"inclination_deg":0.0468,"raan_deg":94.6663,"arg_perigee_deg":348.6628,"mean_anomaly_deg":233.4603,"bstar":0,"rev_number":1329,"period_min":1436.1298454859,"perigee_km":35779.211459275,"apogee_km":35795.268034741,"semimajor_km":42165.376747008,"source":"CELESTRAK","updated_at":"2026-05-25T13:38:14.517077Z"}}